TimeEST,TemperatureF,Dew PointF,Humidity,Sea Level PressureIn,VisibilityMPH,Wind Direction,Wind SpeedMPH,Gust SpeedMPH,PrecipitationIn,Events,Conditions,WindDirDegrees,DateUTC
12:53 AM,34.0,30.0,85,29.99,3.0,Calm,Calm,-,N/A,,Scattered Clouds,0,2013-02-16 05:53:00
1:53 AM,33.1,28.9,85,29.98,4.0,Calm,Calm,-,N/A,,Scattered Clouds,0,2013-02-16 06:53:00
2:53 AM,33.1,30.9,92,29.96,2.5,WSW,3.5,-,N/A,,Overcast,250,2013-02-16 07:53:00
3:27 AM,33.8,30.2,87,29.93,2.5,Calm,Calm,-,0.00,Snow,Light Snow,0,2013-02-16 08:27:00
3:53 AM,33.1,30.9,92,29.96,1.5,Calm,Calm,-,0.01,Snow,Light Snow,0,2013-02-16 08:53:00
4:53 AM,34.0,28.9,82,29.97,8.0,Calm,Calm,-,0.00,,Overcast,0,2013-02-16 09:53:00
5:53 AM,34.0,30.0,85,29.98,4.0,Calm,Calm,-,0.00,,Overcast,0,2013-02-16 10:53:00
6:53 AM,33.1,28.0,82,29.98,2.0,Calm,Calm,-,0.00,Snow,Light Snow,0,2013-02-16 11:53:00
7:07 AM,33.8,26.6,75,29.94,6.0,Calm,Calm,-,0.00,Snow,Light Snow,0,2013-02-16 12:07:00
7:53 AM,34.0,27.0,75,29.98,7.0,Variable,3.5,-,0.00,,Partly Cloudy,0,2013-02-16 12:53:00
8:53 AM,34.0,27.0,75,29.98,10.0,Calm,Calm,-,N/A,,Mostly Cloudy,0,2013-02-16 13:53:00
9:01 AM,33.8,26.6,75,29.93,10.0,Calm,Calm,-,N/A,,Mostly Cloudy,0,2013-02-16 14:01:00
10:53 AM,34.0,26.1,73,29.96,10.0,NE,3.5,-,N/A,,Overcast,50,2013-02-16 15:53:00
11:53 AM,35.1,23.0,61,29.95,10.0,NW,4.6,-,N/A,,Overcast,320,2013-02-16 16:53:00
12:53 PM,36.0,24.1,62,29.91,10.0,North,5.8,-,N/A,,Overcast,360,2013-02-16 17:53:00
1:53 PM,35.1,21.9,59,29.91,10.0,Variable,3.5,-,N/A,,Overcast,0,2013-02-16 18:53:00
2:53 PM,35.1,21.0,57,29.89,10.0,NW,6.9,-,N/A,,Mostly Cloudy,310,2013-02-16 19:53:00
3:53 PM,34.0,18.0,52,29.88,10.0,NNW,6.9,-,N/A,,Mostly Cloudy,330,2013-02-16 20:53:00
4:53 PM,33.1,16.0,50,29.90,10.0,North,4.6,-,N/A,,Overcast,350,2013-02-16 21:53:00
5:53 PM,33.1,16.0,50,29.90,10.0,Variable,3.5,-,N/A,,Overcast,0,2013-02-16 22:53:00
6:53 PM,32.0,15.1,50,29.90,10.0,Calm,Calm,-,N/A,,Overcast,0,2013-02-16 23:53:00
8:53 PM,30.9,12.0,46,29.89,10.0,Variable,3.5,-,N/A,,Scattered Clouds,0,2013-02-17 01:53:00
9:53 PM,30.9,12.0,46,29.88,10.0,Variable,3.5,-,N/A,,Partly Cloudy,0,2013-02-17 02:53:00
10:53 PM,30.0,12.9,49,29.87,10.0,Variable,6.9,-,N/A,,Clear,0,2013-02-17 03:53:00
11:53 PM,28.0,14.0,56,29.86,10.0,Variable,5.8,-,N/A,,Clear,0,2013-02-17 04:53:00